Wind_Speed
14 15 15 15 15 15 16 16 15 16 16 16 16 16 16 16 16 16 16 15 15 15 16 16 16 16 15 15 15 15 15 16 17 17 17 16 16 16 16 16 15 15 15 15 16 16 15 15 16 17 17 16 17 18 16 17 17 16 17 19 20 20 18 17 16 12 11 11 4 3 3 5 7 7 8 10 14 13 9 12 15 15 14 13 16 22 21 18
14 14 14 14 15 15 15 15 15 15 15 15 15 16 16 15 15 15 16 15 15 15 15 16 16 16 16 15 15 16 16 16 17 17 16 16 15 15 15 15 15 15 14 14 14 14 14 13 14 16 17 16 16 16 16 17 19 19 19 20 22 21 18 16 14 10 6 5 2 4 3 5 9 7 5 9 13 15 12 11 15 15 13 13 15 19 20 20
13 13 14 14 14 14 15 15 15 15 15 15 15 15 15 15 15 15 15 15 15 15 14 15 15 16 16 16 16 15 15 16 17 18 16 15 15 15 15 15 15 14 13 13 13 13 12 11 11 14 15 15 15 15 16 17 19 21 21 21 22 20 20 18 14 11 6 3 2 3 2 4 9 9 7 8 10 15 17 14 16 16 13 14 15 17 20 21
13 14 14 14 14 14 14 14 15 15 15 15 15 15 15 15 15 15 15 15 15 15 14 14 14 15 15 16 15 15 14 13 16 19 14 13 14 14 14 14 14 13 13 13 13 13 11 10 10 12 14 16 15 16 18 18 18 20 23 24 22 19 20 18 13 12 12 11 8 4 1 3 6 6 7 8 10 12 15 15 17 17 14 16 18 19 21 22
14 14 14 14 14 14 14 14 14 14 15 15 15 15 15 15 15 15 15 15 15 15 15 14 14 14 14 15 14 14 11 6 15 20 12 11 12 12 13 13 13 12 12 13 13 14 12 12 12 14 16 17 16 18 20 20 19 19 22 24 23 22 21 17 11 11 12 11 11 9 6 6 5 5 7 8 11 11 12 13 14 16 13 17 21 20 20 21
14 14 14 14 14 14 14 15 14 14 14 14 14 15 14 14 15 15 15 15 15 15 15 14 14 13 13 14 13 13 8 5 14 21 15 12 11 11 11 12 12 12 12 13 13 14 14 15 16 17 18 18 18 19 19 19 21 22 21 22 24 25 24 19 12 10 11 10 11 13 12 10 7 8 9 9 11 11 14 14 10 13 14 18 22 19 18 18
14 15 15 15 15 14 15 15 15 15 14 14 14 14 14 14 14 15 15 15 15 15 14 14 14 13 12 13 12 13 11 10 16 22 18 15 13 12 11 11 10 11 12 12 13 14 15 16 18 19 19 19 19 19 19 18 20 23 23 21 22 23 23 21 15 10 9 11 12 14 15 11 10 11 9 9 10 10 14 14 12 13 15 18 21 18 17 15
15 15 15 15 15 15 15 15 15 15 14 14 14 14 14 14 14 14 15 15 15 15 14 14 13 13 12 11 11 11 8 10 18 21 19 17 15 14 13 11 10 10 10 11 13 13 14 17 19 19 19 19 18 18 19 19 22 24 25 23 21 21 21 21 20 16 10 10 12 14 15 12 11 13 9 8 10 10 11 11 15 14 14 19 20 18 17 15
15 15 15 15 15 15 15 15 15 15 15 14 14 14 14 14 14 14 14 14 14 14 14 14 13 13 12 11 11 6 4 11 19 18 16 17 16 14 14 12 11 10 9 11 13 14 15 17 19 19 19 18 17 18 18 20 22 23 23 24 23 22 19 17 19 19 15 12 11 13 16 14 13 13 12 10 10 9 7 8 13 13 12 18 20 16 15 14
16 15 15 15 15 16 15 16 15 15 15 15 14 14 14 14 13 13 14 13 14 14 14 14 13 13 13 12 10 7 7 12 20 20 17 17 16 14 13 12 11 10 9 11 13 15 15 15 15 16 18 18 18 18 19 21 21 20 21 23 24 25 23 19 18 18 19 18 15 15 16 16 15 15 15 13 12 12 11 10 14 15 13 18 20 15 13 11
16 16 16 16 16 16 16 16 16 15 15 15 15 14 14 14 13 13 13 13 14 13 14 14 14 14 13 14 12 11 12 13 18 23 17 15 16 14 13 13 12 11 10 11 12 13 14 13 12 13 17 18 19 18 19 21 20 21 21 20 20 23 24 24 21 18 18 20 18 17 17 16 17 18 17 15 13 14 15 12 14 17 15 16 18 15 13 12
17 17 16 16 17 16 16 16 16 16 16 15 15 15 14 14 13 14 13 14 14 14 15 14 15 15 15 17 14 10 14 15 17 22 20 16 16 15 14 14 12 12 11 9 9 11 13 14 13 16 16 15 17 18 18 19 20 22 21 20 19 19 23 26 23 19 18 19 17 16 19 19 19 20 20 18 16 16 16 14 15 19 18 16 16 15 14 14
18 18 17 17 17 17 17 16 16 16 16 16 16 15 14 13 13 13 14 14 14 15 15 15 15 16 17 17 12 11 15 16 17 21 22 18 16 16 14 13 12 12 12 11 9 12 15 17 15 17 18 14 14 15 14 13 17 21 21 22 22 21 24 25 25 23 20 19 16 15 19 20 20 21 19 19 18 18 17 15 17 19 21 18 17 17 16 16
19 19 18 18 18 17 17 17 17 16 16 16 16 16 15 13 13 13 14 14 15 15 14 15 15 16 19 15 11 15 15 15 19 21 20 18 17 15 13 12 13 11 12 14 13 12 14 17 16 18 21 18 15 14 14 14 15 18 20 22 23 24 24 22 23 26 24 21 18 18 20 19 19 20 21 19 16 17 17 16 17 18 20 18 18 20 17 17
19 19 19 19 18 18 17 17 17 17 17 16 16 16 15 13 13 13 14 14 15 15 14 15 14 16 18 13 12 17 15 14 19 18 16 18 16 13 13 12 13 12 12 15 16 14 13 16 19 21 22 18 16 17 16 15 15 17 19 22 23 24 24 21 22 27 27 24 21 22 22 20 18 19 23 24 19 20 19 17 17 18 21 19 20 21 18 18
19 20 19 19 19 19 18 17 17 17 17 16 16 16 15 14 13 13 14 14 15 14 14 14 13 15 14 11 13 15 14 13 15 16 16 17 13 11 13 12 12 13 13 15 16 16 16 17 18 19 18 16 18 19 17 16 17 18 20 22 21 23 24 22 23 26 27 25 24 26 23 19 19 19 22 25 23 24 24 20 18 19 23 22 20 20 18 20
19 19 19 19 20 19 19 18 18 18 17 17 16 15 15 14 13 14 14 14 14 14 14 13 13 14 10 11 12 9 11 12 11 14 16 16 13 10 11 13 12 12 12 13 14 15 16 16 16 17 18 19 19 18 18 19 18 18 21 21 21 22 22 21 23 25 27 25 24 26 24 20 19 19 20 25 28 26 24 22 20 21 25 25 23 22 20 21
19 19 19 19 19 19 19 18 18 18 18 17 16 16 15 14 14 14 14 15 15 14 13 11 12 11 6 7 7 3 8 11 12 12 13 14 11 11 13 15 11 10 11 11 13 14 14 15 15 16 17 20 21 20 22 21 18 17 19 20 20 22 23 22 24 24 26 27 24 24 25 24 24 22 19 21 30 27 22 21 20 22 26 27 26 26 22 19
20 20 20 20 20 19 18 18 18 18 18 17 17 16 14 14 15 14 15 16 15 13 10 10 13 11 4 5 3 0 2 12 15 10 12 14 11 12 15 15 11 11 12 13 14 14 14 15 16 18 20 21 22 23 23 21 20 19 18 18 19 20 22 23 24 23 25 28 25 23 25 24 25 24 15 10 24 24 20 20 19 21 24 25 25 25 21 19
20 21 21 21 21 20 19 18 18 17 17 17 17 16 13 12 12 14 18 17 14 13 11 13 17 15 11 6 6 6 10 15 14 9 14 16 13 14 16 14 12 14 15 15 14 13 15 17 19 22 22 20 21 22 22 22 23 22 19 19 20 20 20 21 23 21 23 26 24 22 24 23 21 23 19 15 19 20 18 18 20 21 22 24 26 25 22 20
21 21 21 21 21 21 20 19 18 17 17 16 17 16 13 11 10 13 19 21 16 16 16 15 18 18 14 10 7 10 14 16 14 9 15 17 14 15 16 16 15 17 18 16 14 12 16 20 21 21 19 19 20 19 20 23 23 23 22 23 22 22 21 20 21 21 21 22 20 20 22 23 20 21 23 20 20 22 21 20 21 22 22 26 29 27 24 22
21 21 20 20 20 20 20 19 19 17 16 16 16 16 13 12 13 16 21 24 19 15 18 16 16 18 15 14 14 13 14 15 13 11 16 18 16 16 17 17 18 18 17 17 17 14 18 23 21 19 18 17 18 18 19 21 21 21 21 22 21 19 20 19 20 22 20 18 16 18 20 23 22 22 23 23 22 23 23 23 23 24 24 27 30 28 26 24
19 19 19 19 19 20 19 18 18 17 16 16 15 15 14 13 15 17 19 24 21 13 18 20 17 17 17 17 17 17 18 18 14 14 19 20 17 16 17 17 18 18 16 18 20 18 19 22 20 18 18 17 18 19 18 19 19 19 19 19 18 14 17 18 18 20 17 14 14 15 17 20 21 23 24 23 23 21 21 22 23 24 25 29 32 29 26 23
17 17 18 18 18 19 19 18 17 16 15 14 14 14 15 14 14 17 17 23 25 15 14 18 18 19 20 18 17 19 21 21 17 17 22 22 17 17 17 16 17 18 18 19 21 20 18 17 16 16 19 20 18 16 14 15 16 19 20 20 17 13 16 16 12 14 12 11 13 13 15 19 22 24 23 23 23 21 20 21 22 23 25 31 32 28 26 24
15 16 16 16 16 17 18 17 15 14 14 12 12 12 13 13 12 15 17 18 23 16 9 12 16 18 18 15 17 19 19 21 19 18 24 24 17 18 18 16 17 18 18 19 20 22 20 15 13 16 21 22 18 15 15 15 15 18 22 23 22 18 18 15 11 13 12 11 14 14 14 16 20 23 21 22 24 22 20 20 21 22 24 31 32 28 28 25
14 14 14 14 14 14 16 15 12 11 10 8 10 10 10 12 10 12 14 14 19 16 9 9 10 14 15 15 18 17 16 21 20 18 23 25 17 19 18 16 18 18 17 18 19 20 20 15 14 17 18 17 17 17 18 19 18 19 20 22 26 25 24 21 14 14 14 12 12 15 15 14 17 22 22 22 23 22 22 21 22 22 23 28 27 23 25 25
14 13 13 13 13 13 14 13 11 9 4 4 11 11 9 10 8 7 9 9 13 11 11 14 11 12 12 14 19 18 14 16 18 19 23 24 19 20 20 16 17 18 16 16 17 18 18 17 15 15 13 13 16 19 19 19 20 20 18 17 22 26 26 24 19 16 15 13 13 15 18 17 17 21 23 24 24 23 25 24 23 22 23 27 25 21 21 22
14 13 13 13 14 13 13 13 12 10 9 11 13 9 7 8 6 4 4 4 4 2 10 16 15 14 11 12 19 20 12 8 15 21 23 23 19 21 22 19 16 17 16 16 17 16 16 16 15 15 16 16 18 18 17 19 20 21 18 15 17 20 23 21 18 15 13 12 14 15 18 15 15 20 21 22 25 26 24 25 24 22 23 28 27 23 20 20
14 12 11 12 13 13 12 13 12 11 13 14 11 7 8 7 5 5 4 4 5 5 9 13 15 13 11 14 17 19 15 10 12 19 23 22 20 21 22 19 17 17 16 17 17 14 13 15 14 15 17 18 18 18 17 18 19 19 18 18 17 18 21 19 15 13 12 10 13 16 17 13 12 17 19 18 23 25 23 23 22 21 24 27 25 24 22 20
13 11 10 10 12 12 12 14 13 11 12 11 9 9 9 8 7 6 6 5 8 9 9 12 14 11 11 16 17 19 20 15 11 16 23 22 20 22 19 16 16 17 17 19 18 15 14 14 15 16 17 17 17 16 17 20 19 16 17 18 18 17 21 19 16 15 11 9 14 17 17 12 10 14 19 19 20 20 20 21 21 22 25 25 23 24 24 22
12 11 10 9 10 11 11 13 12 10 10 9 9 9 9 10 9 8 7 7 10 11 10 11 12 12 14 17 18 19 21 18 13 17 22 21 20 22 20 17 18 17 16 19 19 19 17 14 14 16 17 17 17 15 16 18 18 15 15 14 13 14 17 18 19 16 9 8 14 19 19 15 12 12 11 14 17 18 19 19 19 20 22 23 23 23 24 23
13 13 12 12 11 10 11 12 10 9 10 8 8 10 10 10 12 13 11 8 9 8 11 12 11 13 15 17 17 18 21 21 17 18 21 22 21 24 23 20 19 17 16 18 18 19 20 18 14 14 17 19 18 15 13 14 17 15 15 15 11 10 11 11 12 11 8 10 14 17 16 14 14 13 8 11 10 13 17 19 20 18 18 23 24 23 23 21
15 15 14 14 12 10 11 12 11 10 10 9 9 12 11 9 12 15 15 13 8 2 4 8 9 11 13 16 17 17 19 22 20 19 21 21 21 23 25 22 20 18 16 16 17 18 18 19 18 16 17 20 19 17 14 14 18 18 17 17 12 7 6 6 6 7 8 13 15 14 10 7 9 10 10 13 12 9 11 15 19 16 16 21 22 22 23 22
16 16 16 14 13 11 10 12 12 10 10 10 12 14 14 13 13 14 17 19 17 12 9 8 7 10 13 16 17 17 19 21 20 21 21 22 22 22 24 24 22 21 17 14 16 17 15 15 20 20 18 20 21 20 16 12 16 20 19 17 15 12 9 6 5 5 5 10 13 12 8 5 7 10 8 14 17 16 17 16 16 15 15 19 20 21 20 19
16 15 16 14 12 10 9 11 11 10 11 12 14 15 16 17 15 16 18 19 20 20 19 16 13 13 14 16 17 17 20 21 21 23 22 23 24 22 24 25 24 23 20 15 14 16 17 15 17 20 18 19 22 22 18 13 13 17 18 18 17 15 13 7 4 4 4 6 8 9 6 4 7 11 10 11 13 17 20 18 15 11 11 12 13 14 13 13
15 13 14 14 11 8 7 9 9 9 12 13 15 18 20 19 16 16 16 15 16 17 19 20 19 18 16 15 17 18 20 21 20 22 23 24 25 23 22 23 24 25 23 18 13 13 15 14 14 18 19 19 19 19 19 17 12 10 16 20 17 14 14 9 5 6 4 5 4 7 3 4 6 8 10 11 11 12 13 14 14 13 13 12 10 12 13 14
13 13 13 11 8 6 6 8 8 9 11 14 18 20 20 19 18 18 17 16 17 16 16 18 19 19 19 17 17 17 17 19 20 20 21 21 22 23 23 22 23 25 24 20 16 12 12 12 11 15 18 19 18 15 18 19 14 10 13 15 15 14 15 13 6 4 6 5 6 9 8 8 7 7 13 14 12 11 9 11 18 21 18 16 15 15 15 16
11 11 10 5 3 5 8 9 9 9 11 15 20 22 20 19 19 19 20 20 20 18 15 17 17 17 18 17 17 17 16 19 21 23 23 21 19 20 21 20 21 24 24 23 19 13 12 13 12 14 18 19 18 16 17 20 19 15 11 10 12 12 11 13 8 4 5 5 5 11 13 10 3 4 14 16 13 15 14 14 18 19 19 19 18 17 17 18
9 8 7 6 6 7 10 10 10 10 12 16 20 21 20 21 20 20 20 20 20 20 18 18 18 17 17 17 17 16 16 17 17 18 20 19 20 21 20 16 15 20 22 23 22 15 10 12 12 13 17 17 18 18 17 17 19 18 12 10 13 12 8 8 8 8 8 4 4 10 10 4 7 4 10 16 16 17 18 17 16 14 16 18 18 19 19 18
7 7 8 11 10 10 12 12 11 11 14 18 19 18 18 18 19 19 20 20 20 20 18 16 17 18 19 19 18 16 15 16 16 16 13 10 14 21 23 16 10 14 19 21 24 19 11 11 10 9 13 17 17 19 18 15 16 17 15 14 13 10 8 9 10 11 10 5 3 5 3 4 7 6 8 14 16 16 17 17 16 13 14 17 20 21 22 20
5 5 8 12 12 13 13 11 10 11 15 17 18 18 17 17 17 17 18 19 20 19 17 17 18 19 18 19 19 17 15 14 15 17 13 9 12 17 19 15 10 13 19 18 21 23 16 14 14 10 10 15 14 13 15 16 16 17 17 17 16 13 11 9 7 9 11 7 4 1 2 2 5 10 8 11 15 15 16 14 12 12 14 16 20 22 24 23
6 5 9 12 12 13 11 9 10 11 15 17 17 17 16 16 18 18 17 16 17 17 16 18 20 20 18 18 15 15 16 14 13 15 14 14 14 14 14 12 8 12 17 13 15 21 18 13 16 15 13 15 14 9 9 13 17 19 18 15 16 17 17 13 6 6 10 8 6 3 4 2 7 12 9 9 13 15 16 15 13 13 13 13 14 15 17 18
5 7 12 12 9 10 9 8 10 12 15 16 17 17 18 17 15 15 16 15 15 15 14 16 18 19 19 15 12 13 14 14 12 11 12 12 10 11 14 12 10 12 16 13 9 11 15 12 12 13 14 17 16 12 10 10 10 14 16 14 13 14 17 18 13 9 8 6 6 4 5 2 8 10 8 8 13 14 14 15 12 11 11 12 12 10 8 9
3 6 10 10 10 10 9 9 10 12 13 13 14 17 18 17 14 12 13 14 14 15 15 16 16 18 19 16 15 16 14 13 11 9 9 10 9 12 14 14 14 11 10 14 11 7 9 11 8 9 11 12 11 12 12 9 6 7 10 12 14 13 10 12 14 12 10 8 9 3 4 4 8 9 7 7 11 13 13 12 9 9 9 11 11 10 10 11
4 6 6 9 15 13 8 8 10 11 13 13 14 15 14 14 13 12 13 14 13 13 14 15 15 15 15 16 17 19 17 14 13 9 7 7 8 10 11 13 18 14 4 8 14 10 8 9 7 6 6 6 5 5 7 6 4 7 10 11 14 16 12 9 10 10 8 8 8 3 6 9 9 10 8 7 10 14 14 12 8 6 8 11 12 13 14 15
6 6 4 8 14 11 6 9 11 10 12 14 13 12 11 12 11 9 10 13 12 11 11 13 14 12 11 12 15 16 17 16 16 13 9 5 4 5 6 11 16 16 9 7 9 9 9 10 11 8 3 1 3 4 7 6 6 12 11 12 11 11 13 12 11 11 9 7 5 3 7 13 13 11 9 7 10 13 14 14 11 8 10 12 12 13 13 14
6 6 8 8 9 6 5 9 11 10 11 12 11 9 9 10 9 5 5 7 9 9 10 11 12 11 10 11 13 14 15 15 16 17 14 8 4 4 7 10 12 13 14 13 10 9 9 9 12 14 8 4 5 6 10 10 2 11 11 10 10 8 7 11 12 14 14 9 4 6 10 14 16 13 10 9 10 10 12 14 13 10 10 10 10 11 12 13
5 6 9 6 7 8 8 8 10 13 10 6 5 6 7 6 5 2 2 3 4 5 7 9 10 12 12 11 12 14 15 15 14 14 12 6 3 5 6 9 13 14 13 13 11 11 11 10 11 15 14 10 8 8 11 13 11 4 6 9 11 11 6 6 9 11 14 12 7 12 15 19 21 19 16 14 12 12 13 13 12 10 9 9 8 9 10 12
1 2 5 5 8 12 12 9 11 13 8 3 4 1 1 6 6 4 5 4 4 1 2 6 7 9 10 11 14 12 9 10 10 7 7 4 0 4 7 7 10 13 14 12 11 12 12 11 10 10 11 12 11 9 10 13 17 18 10 1 7 10 8 5 6 2 7 9 11 18 20 21 22 21 19 16 13 13 15 14 13 10 9 10 9 8 10 10
2 1 2 7 8 11 13 12 12 12 6 1 2 3 5 9 9 6 6 5 2 3 6 6 6 5 4 4 7 5 1 4 7 3 4 4 2 0 7 7 3 7 12 13 13 15 13 10 10 9 7 9 9 8 8 8 12 20 21 13 6 4 6 7 5 3 8 12 19 25 24 22 21 20 20 17 13 13 14 14 14 12 11 12 11 9 10 9
2 2 4 9 8 9 10 12 12 11 9 6 3 1 2 7 11 8 4 6 7 7 8 10 9 5 1 4 3 4 4 7 10 6 6 7 2 1 4 7 2 3 9 13 14 16 14 9 9 9 7 8 8 7 7 6 7 13 17 17 16 15 8 3 6 4 7 15 22 25 21 18 19 21 19 16 14 13 13 14 16 15 15 15 13 12 12 11
3 4 8 11 8 9 9 9 10 10 11 12 11 7 5 5 9 8 3 2 4 7 8 10 8 4 4 5 6 9 10 10 11 10 10 11 8 4 5 8 6 4 6 10 11 12 13 9 7 8 8 8 8 8 8 6 5 7 11 13 14 16 16 9 2 1 5 9 14 18 16 13 15 16 14 11 10 10 11 13 17 20 21 19 17 19 21 21
Wind_Direction
285 285 285 286 287 288 289 291 293 295 297 297 299 300 300 301 301 302 302 302 300 299 297 294 291 290 288 285 284 280 276 273 270 268 267 265 265 265 261 258 257 255 251 246 243 241 236 230 224 218 214 210 210 204 205 222 223 223 231 238 243 245 245 242 248 257 254 247 253 320 245 233 257 252 247 230 218 229 223 207 223 225 224 228 196 188 190 186
287 286 286 286 286 288 289 290 292 293 294 295 296 297 297 298 299 300 300 300 300 299 297 295 293 289 288 287 284 282 280 277 274 272 270 267 264 263 262 258 256 254 251 248 244 242 237 230 223 218 214 209 217 217 211 219 222 221 226 235 239 241 243 240 249 261 261 252 263 319 276 232 249 242 239 233 221 227 225 209 219 219 212 218 207 192 187 188
288 287 286 286 287 288 288 290 291 291 293 293 294 295 296 296 297 299 298 300 300 299 298 295 294 290 288 285 283 283 281 281 281 274 269 268 265 261 260 257 255 252 248 243 236 233 228 221 219 217 216 213 218 224 220 220 222 223 227 235 238 240 245 246 261 267 261 290 329 328 274 217 248 242 248 252 233 224 220 211 215 222 215 210 209 196 190 193
288 288 287 288 288 288 289 289 289 290 291 292 293 294 295 295 296 297 298 299 298 299 298 296 294 291 288 285 284 282 283 289 282 275 270 266 263 260 258 255 252 248 245 241 231 225 210 199 211 214 215 219 221 223 224 221 220 224 228 235 237 240 247 248 266 270 258 266 266 286 279 250 262 240 246 249 240 228 213 214 225 226 212 199 198 192 194 198
289 289 288 289 289 289 289 289 289 289 290 291 292 293 294 295 295 296 297 297 297 298 297 296 295 292 290 285 282 280 284 292 276 275 275 267 266 263 258 253 250 245 239 236 230 219 197 187 206 217 217 221 224 225 227 223 222 228 231 237 241 242 247 251 273 273 256 252 240 238 261 289 283 241 257 245 236 232 202 202 227 232 215 194 190 190 200 201
290 290 290 290 290 290 290 290 290 289 290 291 292 293 294 294 295 295 295 295 295 296 295 296 295 293 292 285 281 277 261 228 269 278 276 271 274 269 261 254 248 244 237 232 228 214 194 191 206 217 220 224 226 226 229 226 224 232 238 240 244 247 253 259 275 273 250 242 239 240 257 284 279 256 267 247 236 242 221 205 211 232 219 192 188 195 203 197
291 291 292 292 292 292 291 291 290 290 291 292 293 294 295 295 295 294 294 294 294 294 294 294 294 293 290 284 279 271 255 233 256 270 275 276 274 268 266 262 250 242 238 229 226 213 193 198 210 217 223 228 231 231 232 231 228 234 240 242 245 249 253 255 259 265 252 246 249 248 253 266 258 250 259 252 235 229 225 204 188 218 213 192 193 199 199 190
293 293 294 294 294 294 293 293 292 291 291 292 293 293 295 296 295 295 294 294 293 293 293 291 291 290 287 284 273 268 269 250 250 259 270 273 269 267 266 264 256 243 234 225 222 209 195 206 214 217 227 232 234 237 236 236 235 235 240 244 246 248 251 252 249 252 257 254 250 242 243 249 246 245 254 252 224 218 232 202 183 202 203 196 204 207 201 190
294 295 295 295 295 295 295 294 293 292 291 291 292 293 295 295 295 296 295 295 295 292 291 288 287 286 283 278 268 257 253 257 259 260 261 265 265 265 263 259 256 244 226 222 216 198 197 214 218 220 229 236 240 241 239 241 239 237 242 245 246 248 249 251 246 243 247 251 249 240 239 242 241 247 254 241 221 226 239 221 211 213 209 207 212 215 208 196
295 295 295 296 296 296 296 295 295 293 292 291 291 293 294 296 297 296 296 295 294 292 290 286 283 280 276 271 257 230 232 255 266 264 254 258 263 259 258 255 250 244 224 218 211 195 200 215 219 225 232 239 243 244 242 243 244 242 245 247 245 247 249 249 248 243 244 245 243 241 242 242 238 241 245 231 221 223 210 220 239 232 225 217 212 217 212 199
296 295 295 296 295 295 296 296 296 294 293 291 291 292 294 297 299 298 297 294 292 291 286 283 279 273 269 265 251 234 244 247 259 269 262 255 260 256 253 250 242 238 224 212 204 197 204 213 218 231 238 242 243 247 249 245 248 248 248 250 245 248 249 246 245 242 241 240 237 238 243 243 237 233 235 229 220 218 210 210 230 234 231 216 210 219 215 204
296 296 296 296 296 296 296 295 296 295 294 292 291 291 293 297 299 300 297 293 290 287 285 283 278 273 266 265 260 241 246 246 251 266 268 261 260 255 250 248 239 229 217 203 207 212 211 212 225 234 233 241 245 246 252 250 248 247 248 251 248 252 250 243 239 237 237 236 231 232 240 240 234 230 231 232 226 213 212 208 215 235 237 220 218 223 219 213
296 296 296 295 296 296 296 296 295 296 295 293 292 291 292 295 298 301 297 292 288 285 286 285 279 274 267 268 267 240 238 249 254 260 265 266 262 255 251 245 239 229 209 193 209 234 224 212 225 234 226 239 250 240 246 255 249 244 244 248 250 254 252 243 235 233 233 232 225 221 232 236 231 231 229 230 228 214 213 211 205 228 241 236 232 229 226 221
296 296 296 295 295 295 296 296 295 296 294 293 292 291 292 293 296 299 298 293 286 284 285 285 282 276 271 273 269 253 246 247 251 256 261 262 260 257 252 239 235 231 211 198 202 228 233 220 227 228 220 230 243 240 251 258 248 242 240 241 245 249 251 244 232 228 229 228 221 216 228 237 232 229 223 220 222 209 206 207 204 223 237 239 240 237 233 225
295 295 295 295 295 295 295 295 295 295 293 293 292 291 292 293 295 297 299 296 288 285 284 285 284 279 278 276 261 259 261 251 251 257 255 254 256 250 249 246 236 226 216 210 206 215 225 223 230 228 220 225 235 244 256 256 245 237 234 237 237 242 249 246 234 226 224 225 217 216 228 235 235 230 220 218 219 209 207 210 210 222 231 233 243 245 238 229
295 295 295 295 294 294 294 294 295 294 293 294 292 292 292 292 293 293 298 298 291 286 284 287 286 284 285 278 265 261 267 266 259 258 249 247 243 230 243 254 242 227 222 223 217 215 219 222 229 230 226 229 235 240 249 250 241 230 228 237 238 239 244 245 241 228 219 222 215 215 226 230 235 235 223 218 216 212 213 220 216 220 235 236 240 246 238 229
295 295 295 294 294 293 292 292 293 293 293 293 293 293 292 293 291 290 296 296 293 287 282 285 287 287 286 275 276 289 295 285 267 256 246 243 230 204 228 246 245 234 229 232 226 221 225 227 226 226 226 228 230 231 236 240 236 229 226 234 240 242 242 241 243 229 211 215 217 214 220 229 235 233 234 227 215 209 210 219 218 218 235 238 238 246 235 224
297 297 296 296 295 293 292 291 290 291 291 292 294 293 294 294 288 288 291 291 291 286 281 282 279 283 304 289 268 339 323 267 251 252 238 237 219 187 213 233 236 229 226 230 229 225 224 225 222 225 226 224 226 224 227 232 232 231 225 228 237 242 243 240 243 232 206 207 216 214 214 228 237 238 257 238 205 201 205 213 214 215 234 241 242 247 235 227
297 297 296 295 295 294 294 292 290 289 289 290 292 294 298 295 290 294 289 283 284 282 280 276 264 246 244 308 279 182 256 227 235 238 219 226 208 190 215 227 222 216 218 222 229 228 216 217 218 221 224 220 222 223 225 232 233 234 232 233 236 238 241 237 244 238 203 198 211 216 216 225 237 239 250 211 184 192 203 211 214 215 232 242 245 248 243 241
297 295 294 294 293 292 292 291 291 289 288 289 289 292 297 296 303 307 289 276 274 273 266 260 263 248 224 263 298 257 239 236 247 228 209 222 209 199 215 220 215 214 215 215 222 223 208 214 218 219 223 221 223 227 230 237 238 245 256 257 244 239 243 234 240 238 201 197 210 217 222 223 232 235 223 192 184 199 209 215 220 216 226 241 246 246 244 244
296 294 293 292 291 290 289 288 288 288 288 288 288 289 291 291 297 294 281 277 276 272 267 253 254 257 234 224 249 250 247 253 263 231 209 220 212 207 215 211 208 213 216 213 214 216 208 217 224 221 225 227 228 229 234 242 246 254 265 272 257 235 239 236 234 232 199 194 212 215 221 224 223 226 224 214 202 207 218 223 224 220 224 238 244 243 242 241
294 293 292 291 290 289 287 286 286 285 285 285 286 287 284 279 279 282 283 283 278 265 270 263 248 256 248 226 226 230 234 243 254 231 210 216 211 207 213 209 207 213 217 212 209 209 212 223 228 225 227 232 234 229 233 243 248 254 258 270 270 238 232 239 232 230 207 192 212 213 214 225 226 224 226 227 216 210 218 221 224 227 226 234 240 239 241 238
293 292 290 289 288 287 286 286 285 284 282 282 283 284 281 276 278 285 288 288 284 260 257 266 262 262 257 241 231 226 227 229 235 225 212 216 212 203 207 207 210 215 215 211 208 208 216 227 229 227 228 229 233 234 232 235 238 246 247 253 267 247 229 234 227 225 212 191 210 219 220 226 229 229 226 228 228 216 213 216 221 226 227 235 238 237 242 239
294 292 290 290 287 286 286 283 284 285 283 280 277 279 278 277 281 284 288 291 291 281 259 261 258 254 252 245 235 229 229 230 230 221 215 219 210 202 208 208 213 217 216 213 210 213 224 233 228 226 228 221 226 236 231 231 233 237 242 240 250 253 237 232 212 203 201 186 198 221 245 238 230 231 222 221 230 220 209 212 219 226 230 237 240 240 246 240
297 295 293 294 289 288 285 282 286 284 281 279 274 275 274 276 281 283 294 300 294 294 286 266 248 239 242 235 225 225 228 231 226 213 220 228 212 200 211 212 217 220 218 217 214 221 233 239 231 226 227 219 219 231 226 229 238 237 239 237 242 255 249 238 207 192 207 207 197 210 244 244 232 233 223 218 226 220 210 212 221 225 227 236 240 239 242 238
301 299 298 297 293 290 286 285 286 279 289 300 277 263 262 271 275 283 300 300 291 290 269 250 239 229 229 218 211 213 222 233 225 206 221 237 217 198 212 215 218 223 221 219 217 226 236 238 237 229 222 214 218 232 227 225 237 240 237 233 239 250 255 258 242 207 210 222 214 214 229 240 234 230 226 223 223 218 215 219 226 222 221 234 234 228 236 239
302 300 299 298 293 290 287 287 284 270 270 286 268 255 249 262 263 286 307 289 285 281 227 219 231 233 222 209 203 200 211 230 221 203 213 232 218 200 215 216 217 225 223 223 220 225 237 238 234 228 215 211 222 231 227 221 229 237 236 228 232 240 249 262 258 222 211 224 229 221 225 238 237 226 222 223 222 221 220 221 221 216 221 233 231 227 233 230
301 299 298 295 289 287 286 285 285 268 242 248 266 261 246 252 239 256 301 276 284 269 205 211 222 229 215 204 207 203 205 214 211 203 204 221 215 199 215 218 216 226 220 223 226 222 231 231 222 219 219 223 228 230 226 220 225 235 238 230 230 235 239 252 256 235 223 228 233 225 219 230 242 233 225 220 222 223 221 220 218 215 224 234 235 238 233 217
303 303 300 296 288 286 283 279 281 271 259 264 273 257 238 237 218 231 262 256 264 256 228 221 222 228 211 205 212 210 212 216 214 202 194 210 210 194 210 220 220 231 223 225 236 230 224 219 214 216 219 227 231 229 226 221 225 236 240 243 247 236 229 240 250 239 231 230 234 228 217 222 243 237 223 216 221 222 218 217 215 213 223 231 234 237 233 221
308 310 307 303 294 292 285 276 275 270 267 268 262 244 230 214 203 225 231 228 266 267 238 225 228 227 205 204 213 212 213 219 216 194 187 202 205 196 210 222 224 236 230 225 234 236 228 220 221 223 222 228 230 228 230 226 227 235 234 246 257 234 219 232 239 232 232 231 236 234 224 227 247 240 226 216 215 211 211 217 214 214 223 229 233 232 230 226
312 314 311 307 300 298 290 280 275 268 265 259 246 230 214 207 210 228 229 232 275 269 224 214 223 219 206 207 214 211 210 213 205 190 189 197 202 201 211 218 220 232 234 228 229 232 232 223 219 226 227 228 227 233 240 227 219 226 226 235 255 231 214 225 227 224 230 232 236 234 223 218 234 250 230 204 206 209 218 221 207 208 219 224 229 231 232 229
313 313 310 307 300 296 289 285 280 265 258 249 231 208 197 212 221 227 235 247 277 260 216 221 226 215 212 212 215 212 209 211 205 195 194 197 200 204 209 211 209 216 224 223 221 224 229 228 222 228 230 225 226 237 240 217 209 221 222 221 239 232 212 218 218 216 231 234 233 233 228 221 226 242 214 168 188 211 217 213 192 193 217 224 228 234 234 228
310 309 307 303 298 291 279 279 278 263 251 240 216 194 195 224 228 226 234 240 251 247 211 241 237 218 217 219 222 217 212 215 210 203 202 203 205 207 210 213 209 210 220 221 216 216 221 228 227 225 226 223 224 228 222 207 211 221 220 215 223 228 215 224 221 218 235 234 228 227 240 232 194 202 202 188 187 173 170 189 192 201 228 233 234 234 229 225
307 306 304 300 297 290 275 271 271 258 244 230 204 190 206 231 235 231 235 238 244 255 259 263 254 239 234 230 229 220 215 219 213 206 207 206 209 211 210 214 212 213 226 229 221 218 217 224 224 219 217 215 215 222 221 209 211 218 223 222 222 221 217 225 229 226 244 240 228 214 219 229 160 142 173 203 200 178 156 158 176 197 224 235 240 236 226 221
307 305 303 302 297 287 273 270 266 251 241 221 198 199 217 229 232 236 241 244 250 258 260 259 254 251 249 239 234 226 220 222 214 209 212 210 211 214 210 213 214 213 221 226 223 225 226 229 222 215 215 209 209 221 228 228 222 214 218 225 226 223 216 220 243 242 285 281 239 215 210 199 152 146 168 189 182 180 182 176 173 187 208 222 235 233 223 219
310 307 307 309 300 286 275 272 266 251 238 213 202 216 225 227 231 238 246 251 254 261 264 260 250 242 245 241 238 234 227 225 218 212 217 218 218 219 214 214 214 212 216 218 215 221 230 238 223 207 211 210 210 220 222 228 237 216 214 222 224 224 215 216 235 213 246 298 222 204 203 131 134 151 168 174 170 181 195 194 200 214 203 187 200 218 217 217
315 314 317 318 307 309 313 291 277 260 238 214 213 227 232 235 242 246 252 260 264 267 269 270 262 244 239 240 237 236 228 223 222 220 224 226 224 222 219 218 215 214 217 219 223 230 233 246 237 211 211 209 210 219 217 221 232 223 222 224 222 225 215 212 232 202 212 251 205 190 182 170 190 182 163 170 180 181 173 174 200 217 208 187 191 206 212 215
317 319 321 318 294 316 323 304 284 265 241 222 224 232 237 242 247 250 257 266 271 272 266 269 274 256 242 242 238 234 229 225 225 223 224 230 234 226 220 221 219 216 217 221 231 239 230 240 250 232 222 210 206 220 222 220 224 228 234 232 230 242 223 205 221 233 214 237 232 212 197 182 202 191 175 177 172 172 175 179 196 207 204 200 200 202 214 228
323 333 318 294 292 314 317 304 287 262 236 226 231 239 243 247 251 253 260 267 269 268 260 258 268 263 252 253 249 239 233 232 231 225 221 227 235 231 227 231 223 213 215 219 226 235 229 232 244 236 220 205 201 216 226 222 221 228 238 237 238 253 254 226 228 235 225 222 243 224 202 135 43 49 171 172 168 173 178 187 202 201 190 193 194 194 207 220
335 342 303 288 296 312 314 303 283 257 238 232 237 245 251 255 258 257 261 264 264 264 260 258 265 260 256 262 259 248 242 240 242 246 247 240 234 229 229 238 239 220 217 215 217 223 225 226 237 230 210 209 209 210 218 225 222 224 228 230 235 234 232 237 241 244 241 239 262 240 198 73 69 97 148 165 175 179 173 184 206 202 183 182 181 183 191 197
355 336 287 287 301 309 312 304 282 256 243 242 246 251 256 261 263 264 262 257 257 261 257 258 264 261 266 274 264 253 257 252 240 244 255 259 247 232 221 232 261 237 219 219 217 214 214 221 229 234 223 225 226 213 214 228 230 226 223 225 232 229 222 226 234 240 237 241 274 261 91 59 123 122 136 178 184 173 162 165 173 163 160 168 169 171 176 180
8 332 286 293 305 310 309 296 279 264 251 249 250 251 257 264 264 265 266 260 260 265 258 256 260 260 271 281 267 257 268 268 246 238 245 250 247 229 209 222 246 214 209 235 238 213 206 214 222 233 243 234 235 244 239 238 236 232 230 231 234 234 235 240 245 235 231 246 268 189 134 199 174 125 115 182 181 163 157 151 147 146 136 133 142 152 160 166
5 324 299 297 306 318 317 295 280 273 264 262 262 257 261 271 267 260 264 265 265 269 265 261 258 254 259 270 266 259 271 279 263 238 245 257 250 229 221 222 218 208 216 240 254 214 205 207 210 225 241 235 239 264 271 260 254 243 240 245 246 240 235 236 242 255 258 263 258 207 114 177 193 136 114 175 169 155 157 153 160 176 163 144 140 139 135 132
3 330 310 307 320 331 320 297 294 288 280 280 276 263 261 272 272 258 263 266 260 259 261 260 260 257 252 252 257 254 259 277 268 240 244 252 243 238 233 214 195 200 223 226 232 243 219 208 207 220 227 224 234 257 258 256 271 266 262 258 248 244 243 236 235 247 261 257 255 254 106 178 191 142 132 182 168 158 164 165 179 198 177 151 136 135 139 133
2 355 340 315 319 330 325 305 311 308 296 289 281 266 260 267 263 252 261 269 263 259 259 258 265 273 262 251 255 253 250 260 260 255 254 236 236 250 248 227 206 194 194 225 228 244 237 216 222 242 241 217 211 240 238 240 300 312 306 294 262 246 249 258 246 243 254 255 263 276 138 153 156 141 148 169 163 162 164 162 168 168 148 140 140 149 155 153
23 349 326 307 313 328 339 313 311 311 296 286 281 275 271 271 263 252 261 264 262 262 262 263 270 283 284 269 261 254 248 250 250 255 258 231 239 261 243 239 226 209 209 223 217 224 230 223 223 236 266 204 183 201 196 197 357 355 332 312 300 270 253 256 253 244 249 255 259 247 160 145 137 147 160 153 153 160 157 152 157 161 154 150 156 158 150 148
26 307 291 310 323 332 332 311 317 328 312 294 286 273 268 276 269 253 256 256 258 259 255 265 272 269 274 280 270 261 258 253 246 248 250 234 221 227 212 218 224 215 214 219 223 229 232 233 231 231 232 191 179 211 215 214 308 7 352 325 325 321 269 250 248 238 240 248 229 200 190 161 146 156 172 170 163 159 151 147 154 166 160 147 154 157 142 141
8 300 295 327 351 340 336 332 339 344 333 323 320 265 259 300 298 269 331 285 253 258 255 264 270 257 258 272 268 261 261 258 254 251 248 241 200 198 206 210 211 211 214 221 233 236 234 243 241 234 237 231 218 238 251 246 247 282 12 8 348 343 331 279 272 251 237 234 177 156 167 159 155 168 183 189 192 183 168 159 161 169 155 136 146 153 141 146
359 290 318 12 12 345 344 350 350 349 340 1 46 30 317 28 31 38 9 315 234 155 319 285 277 258 257 272 269 260 254 257 268 265 238 239 217 192 203 202 203 211 217 221 225 224 228 238 233 229 241 238 230 242 254 254 250 242 231 48 14 4 4 331 310 254 207 210 165 148 154 157 163 177 189 199 213 208 193 179 172 170 152 141 149 148 142 157
184 175 31 53 31 349 347 351 352 1 356 321 73 62 60 37 21 22 33 23 21 30 8 338 312 266 240 297 287 264 164 229 258 270 211 211 25 19 208 199 201 223 217 218 222 217 218 228 219 216 240 236 223 231 238 238 244 238 230 225 237 316 0 358 346 66 124 148 153 151 152 155 165 182 193 201 215 221 215 198 177 161 149 152 160 149 136 142
146 136 78 69 38 353 354 357 358 10 12 9 5 322 25 21 3 357 35 51 40 23 9 357 338 299 282 14 328 224 203 219 230 232 214 206 199 352 227 210 241 272 220 221 227 214 209 222 214 203 228 236 217 215 223 227 236 238 235 234 243 257 271 359 5 12 115 141 157 158 153 157 172 186 193 196 203 210 214 208 193 173 153 149 159 162 162 167
120 116 82 67 23 353 4 4 6 13 11 12 8 338 315 338 351 352 336 326 3 11 7 1 356 353 334 315 275 242 235 234 235 240 237 228 225 254 255 225 232 285 249 240 241 217 207 219 217 208 225 233 224 221 221 226 244 242 238 240 247 252 244 233 281 355 123 146 167 163 157 170 184 185 177 170 179 182 181 197 204 191 174 172 184 194 201 206
Height
3103 3103 3103 3102 3102 3102 3101 3101 3101 3100 3100 3099 3099 3098 3098 3098 3097 3097 3096 3096 3096 3095 3095 3094 3094 3094 3094 3094 3094 3093 3093 3093 3093 3093 3094 3094 3095 3095 3096 3096 3097 3097 3098 3099 3099 3100 3101 3103 3104 3106 3107 3108 3109 3111 3113 3116 3117 3119 3119 3118 3117 3115 3115 3113 3113 3112 3112 3112 3110 3110 3112 3113 3115 3114 3114 3116 3116 3117 3117 3118 3116 3114 3116 3119 3122 3124 3123 3123
3102 3102 3102 3101 3101 3101 3100 3100 3099 3099 3099 3098 3098 3097 3097 3097 3096 3096 3095 3095 3094 3094 3093 3093 3093 3092 3092 3092 3092 3092 3092 3092 3091 3092 3092 3093 3093 3094 3094 3095 3096 3096 3097 3098 3099 3100 3101 3102 3103 3105 3106 3107 3109 3111 3112 3115 3116 3116 3117 3116 3114 3114 3113 3112 3112 3112 3111 3110 3110 3110 3111 3113 3114 3114 3114 3114 3116 3116 3116 3117 3114 3113 3117 3120 3122 3122 3122 3122
3101 3101 3101 3100 3100 3100 3099 3099 3098 3098 3098 3097 3097 3096 3096 3095 3095 3094 3094 3093 3093 3092 3092 3091 3091 3091 3091 3091 3090 3091 3090 3090 3090 3090 3091 3091 3092 3092 3093 3094 3094 3095 3096 3097 3097 3098 3100 3101 3102 3104 3105 3107 3109 3111 3112 3113 3114 3114 3115 3114 3112 3113 3111 3111 3111 3111 3110 3110 3111 3111 3112 3113 3113 3113 3114 3114 3115 3115 3116 3116 3113 3113 3118 3120 3121 3121 3121 3120
3101 3100 3100 3099 3099 3099 3098 3098 3097 3097 3096 3096 3096 3095 3095 3094 3093 3093 3092 3092 3091 3091 3090 3090 3090 3089 3089 3089 3089 3089 3089 3089 3087 3087 3089 3090 3090 3091 3092 3092 3093 3094 3095 3095 3096 3097 3098 3100 3102 3104 3105 3107 3108 3110 3111 3112 3113 3113 3112 3111 3111 3112 3111 3110 3111 3110 3111 3111 3112 3112 3112 3113 3112 3113 3114 3114 3114 3114 3115 3115 3112 3114 3119 3120 3119 3119 3119 3118
3100 3099 3099 3098 3098 3097 3097 3097 3096 3096 3095 3095 3094 3094 3093 3093 3092 3091 3091 3090 3090 3089 3089 3089 3088 3088 3088 3088 3088 3088 3089 3089 3085 3085 3088 3089 3089 3090 3090 3091 3092 3093 3094 3094 3095 3096 3097 3100 3102 3104 3105 3106 3108 3109 3110 3111 3112 3111 3110 3110 3110 3110 3109 3110 3111 3110 3111 3111 3111 3112 3112 3113 3113 3114 3114 3114 3114 3113 3114 3115 3113 3114 3118 3119 3118 3118 3117 3116
3098 3098 3098 3097 3097 3096 3096 3095 3095 3095 3094 3094 3093 3092 3092 3091 3091 3090 3090 3089 3089 3088 3088 3087 3087 3087 3087 3086 3087 3087 3088 3088 3085 3084 3086 3088 3088 3089 3089 3090 3091 3091 3092 3093 3094 3095 3096 3099 3102 3104 3104 3105 3106 3108 3108 3110 3111 3110 3109 3109 3109 3109 3108 3109 3110 3109 3109 3109 3110 3112 3112 3113 3113 3114 3114 3114 3113 3111 3112 3115 3114 3114 3116 3117 3117 3117 3116 3117
3097 3097 3096 3096 3095 3095 3094 3094 3094 3093 3093 3092 3092 3091 3090 3090 3089 3089 3088 3088 3087 3087 3086 3086 3086 3085 3085 3085 3085 3085 3086 3086 3085 3083 3084 3086 3087 3088 3088 3089 3090 3090 3091 3092 3093 3094 3095 3098 3100 3103 3104 3104 3105 3106 3108 3109 3109 3108 3108 3108 3108 3108 3108 3108 3110 3109 3108 3109 3110 3112 3112 3113 3113 3113 3114 3114 3113 3108 3109 3114 3114 3114 3115 3116 3117 3116 3116 3118
3096 3096 3095 3094 3094 3093 3093 3093 3092 3092 3091 3091 3091 3090 3089 3089 3088 3088 3087 3087 3086 3086 3085 3085 3084 3084 3084 3084 3084 3084 3085 3084 3083 3082 3084 3085 3086 3086 3087 3088 3088 3089 3090 3091 3092 3093 3095 3097 3100 3102 3103 3104 3105 3105 3107 3107 3107 3106 3106 3107 3107 3107 3107 3108 3108 3108 3108 3109 3110 3111 3112 3112 3112 3113 3113 3114 3113 3108 3108 3113 3114 3114 3114 3116 3116 3116 3117 3119
3095 3094 3094 3093 3093 3092 3092 3091 3091 3091 3090 3090 3089 3089 3088 3088 3087 3087 3086 3085 3085 3084 3084 3083 3083 3082 3082 3082 3082 3083 3084 3082 3081 3082 3083 3083 3084 3085 3086 3087 3087 3088 3089 3090 3091 3092 3094 3097 3099 3101 3102 3103 3104 3104 3106 3106 3104 3105 3105 3106 3106 3105 3106 3106 3106 3107 3108 3108 3109 3110 3110 3111 3112 3112 3113 3113 3113 3110 3109 3111 3112 3114 3114 3115 3115 3115 3117 3118
3093 3093 3092 3092 3091 3091 3090 3090 3089 3089 3089 3088 3088 3088 3087 3087 3086 3086 3085 3084 3083 3083 3082 3082 3081 3081 3081 3081 3081 3082 3082 3081 3079 3080 3082 3082 3082 3084 3084 3085 3086 3087 3088 3089 3090 3091 3094 3096 3098 3100 3101 3102 3103 3103 3104 3104 3103 3103 3104 3104 3104 3104 3104 3105 3105 3105 3106 3107 3108 3109 3109 3110 3111 3112 3112 3111 3112 3112 3112 3111 3110 3112 3114 3114 3114 3115 3116 3117
3092 3091 3091 3090 3090 3089 3089 3088 3088 3088 3087 3087 3087 3086 3086 3085 3085 3084 3084 3083 3082 3081 3081 3080 3080 3079 3079 3079 3079 3079 3080 3081 3079 3077 3079 3080 3081 3082 3083 3084 3085 3086 3087 3088 3089 3091 3093 3096 3098 3100 3100 3100 3101 3101 3102 3101 3102 3102 3102 3102 3102 3102 3102 3102 3103 3104 3105 3105 3106 3107 3108 3108 3109 3110 3110 3110 3111 3112 3113 3114 3111 3108 3111 3114 3114 3114 3115 3116
3090 3090 3089 3089 3088 3088 3087 3087 3087 3086 3086 3085 3085 3085 3084 3084 3084 3083 3082 3081 3081 3080 3079 3079 3078 3078 3077 3076 3077 3078 3078 3079 3078 3077 3077 3079 3079 3080 3081 3082 3083 3085 3086 3088 3090 3091 3093 3095 3097 3098 3099 3099 3099 3100 3100 3099 3100 3100 3100 3100 3100 3100 3099 3099 3101 3102 3103 3103 3104 3106 3106 3106 3107 3107 3108 3109 3110 3111 3111 3114 3113 3107 3108 3112 3114 3114 3115 3116
3089 3088 3088 3087 3087 3086 3086 3085 3085 3085 3084 3084 3084 3083 3083 3083 3082 3082 3081 3080 3079 3078 3078 3077 3076 3076 3075 3075 3076 3076 3076 3076 3077 3076 3076 3077 3078 3078 3080 3081 3082 3084 3085 3087 3090 3092 3092 3093 3094 3095 3096 3097 3098 3098 3098 3098 3098 3098 3098 3098 3098 3097 3095 3096 3099 3100 3101 3101 3103 3105 3103 3103 3104 3105 3107 3107 3108 3110 3110 3113 3114 3109 3106 3110 3112 3113 3114 3116
3087 3087 3086 3086 3085 3085 3084 3084 3083 3083 3083 3082 3082 3082 3082 3081 3081 3080 3079 3078 3078 3077 3076 3075 3075 3074 3073 3073 3074 3073 3074 3075 3074 3074 3075 3075 3076 3077 3078 3080 3081 3082 3083 3085 3088 3090 3090 3091 3092 3092 3092 3094 3095 3096 3096 3096 3096 3096 3097 3096 3096 3094 3092 3094 3096 3097 3098 3099 3101 3102 3100 3101 3102 3103 3105 3106 3106 3108 3108 3110 3113 3110 3105 3107 3109 3111 3114 3115
3086 3085 3085 3084 3084 3083 3083 3082 3082 3081 3081 3081 3080 3080 3080 3080 3080 3079 3078 3077 3076 3075 3075 3074 3073 3072 3071 3072 3072 3071 3072 3073 3072 3073 3074 3074 3075 3077 3077 3078 3080 3081 3082 3083 3085 3087 3088 3089 3089 3089 3090 3092 3093 3094 3094 3094 3094 3094 3094 3092 3092 3091 3090 3092 3093 3093 3095 3096 3099 3099 3098 3099 3100 3101 3102 3103 3105 3106 3107 3109 3111 3111 3106 3105 3107 3109 3112 3113
3084 3083 3083 3082 3082 3081 3081 3081 3080 3080 3079 3079 3079 3078 3078 3078 3078 3077 3077 3076 3075 3074 3074 3073 3072 3071 3070 3070 3069 3070 3071 3071 3071 3071 3072 3073 3074 3076 3077 3077 3078 3079 3080 3082 3083 3084 3085 3086 3087 3088 3089 3091 3092 3092 3093 3092 3091 3091 3091 3090 3090 3089 3088 3089 3089 3089 3091 3093 3095 3095 3096 3097 3097 3098 3099 3100 3102 3103 3105 3107 3109 3110 3105 3104 3106 3108 3111 3112
3082 3082 3081 3081 3080 3080 3079 3079 3079 3078 3078 3077 3077 3077 3077 3077 3076 3076 3075 3074 3073 3073 3072 3072 3071 3070 3069 3068 3068 3069 3069 3069 3069 3070 3070 3072 3073 3076 3077 3077 3077 3078 3079 3080 3081 3082 3083 3084 3085 3086 3087 3089 3090 3091 3091 3089 3088 3088 3088 3088 3088 3087 3086 3086 3085 3085 3088 3090 3092 3093 3094 3095 3095 3096 3097 3097 3099 3100 3103 3105 3108 3108 3103 3102 3104 3106 3109 3110
3081 3080 3079 3079 3079 3078 3078 3077 3077 3076 3076 3076 3076 3075 3075 3075 3074 3074 3073 3072 3072 3071 3071 3071 3070 3069 3068 3068 3068 3068 3070 3069 3068 3069 3070 3070 3073 3076 3077 3077 3077 3078 3079 3079 3079 3080 3082 3083 3084 3085 3085 3086 3087 3088 3087 3085 3085 3085 3085 3085 3085 3085 3084 3083 3081 3081 3084 3087 3089 3090 3092 3094 3094 3094 3093 3091 3094 3098 3101 3103 3106 3106 3101 3100 3102 3104 3107 3109
3079 3078 3078 3077 3077 3076 3076 3076 3075 3075 3074 3074 3074 3074 3074 3073 3073 3072 3071 3070 3070 3070 3070 3069 3068 3068 3067 3067 3068 3069 3070 3069 3068 3069 3070 3070 3072 3074 3076 3076 3076 3077 3078 3079 3078 3079 3081 3081 3082 3082 3082 3083 3083 3084 3084 3084 3084 3083 3082 3082 3082 3082 3081 3080 3078 3078 3081 3083 3086 3088 3089 3091 3092 3093 3092 3090 3093 3098 3100 3101 3104 3104 3100 3097 3099 3101 3104 3107
3077 3076 3076 3075 3075 3074 3074 3074 3073 3073 3073 3072 3072 3072 3072 3072 3071 3070 3068 3067 3068 3068 3068 3067 3065 3066 3066 3067 3069 3070 3069 3067 3068 3070 3070 3070 3071 3073 3074 3074 3076 3076 3077 3078 3078 3078 3080 3080 3079 3079 3079 3081 3082 3082 3083 3083 3082 3081 3080 3079 3079 3079 3078 3078 3077 3076 3079 3081 3083 3086 3087 3089 3090 3091 3092 3092 3094 3097 3099 3100 3101 3103 3101 3097 3097 3099 3103 3105
3075 3074 3073 3073 3072 3072 3072 3072 3072 3071 3071 3071 3070 3071 3071 3070 3070 3069 3066 3064 3066 3065 3065 3065 3064 3063 3064 3066 3069 3071 3069 3066 3067 3069 3070 3069 3070 3072 3072 3073 3074 3075 3074 3076 3078 3078 3078 3077 3076 3077 3078 3079 3080 3081 3082 3081 3081 3081 3080 3078 3076 3076 3075 3076 3076 3075 3077 3079 3081 3084 3086 3087 3089 3090 3091 3091 3092 3094 3097 3099 3099 3101 3101 3097 3095 3097 3102 3105
3073 3072 3071 3071 3070 3070 3070 3069 3069 3069 3069 3069 3069 3069 3069 3069 3068 3067 3065 3062 3063 3064 3062 3062 3062 3061 3062 3063 3065 3069 3068 3067 3066 3067 3068 3068 3069 3070 3071 3071 3072 3073 3074 3075 3076 3077 3076 3074 3074 3076 3077 3078 3079 3079 3080 3080 3080 3080 3079 3078 3074 3072 3073 3074 3074 3074 3076 3078 3080 3082 3084 3086 3087 3088 3089 3090 3090 3091 3093 3096 3098 3098 3100 3097 3092 3093 3099 3104
3070 3070 3069 3069 3068 3067 3067 3067 3067 3067 3067 3067 3067 3067 3067 3067 3066 3065 3064 3060 3059 3061 3060 3059 3059 3059 3059 3061 3063 3065 3065 3066 3066 3066 3066 3066 3067 3069 3070 3070 3071 3072 3073 3073 3074 3074 3073 3072 3073 3075 3076 3077 3077 3077 3078 3078 3079 3079 3078 3077 3074 3071 3072 3072 3072 3073 3074 3077 3079 3081 3082 3084 3086 3086 3087 3088 3089 3090 3090 3093 3095 3096 3098 3095 3090 3092 3096 3099
3068 3068 3067 3067 3066 3065 3065 3065 3065 3065 3065 3065 3066 3065 3065 3065 3065 3064 3063 3060 3057 3057 3057 3056 3057 3057 3057 3059 3061 3062 3062 3063 3065 3066 3064 3063 3066 3068 3068 3070 3070 3071 3071 3071 3072 3072 3071 3071 3072 3073 3074 3074 3075 3075 3076 3076 3077 3077 3076 3076 3074 3072 3072 3071 3071 3073 3075 3077 3079 3082 3082 3082 3083 3083 3084 3087 3088 3088 3089 3090 3092 3094 3095 3091 3089 3092 3095 3097
3067 3066 3065 3065 3064 3063 3063 3063 3063 3064 3063 3064 3064 3064 3064 3063 3064 3063 3061 3060 3056 3055 3055 3054 3054 3056 3057 3058 3059 3060 3061 3060 3061 3064 3063 3061 3065 3067 3068 3069 3069 3069 3069 3069 3071 3070 3069 3070 3071 3072 3071 3071 3073 3074 3076 3076 3076 3076 3074 3074 3074 3072 3072 3071 3072 3073 3076 3077 3079 3083 3083 3080 3081 3081 3082 3084 3085 3086 3087 3089 3090 3092 3093 3089 3088 3091 3094 3097
3065 3064 3064 3063 3062 3062 3061 3061 3062 3062 3062 3062 3062 3062 3062 3062 3062 3062 3061 3059 3055 3053 3054 3054 3053 3054 3055 3056 3057 3058 3060 3058 3058 3062 3061 3059 3063 3066 3066 3068 3067 3067 3068 3068 3069 3068 3068 3069 3070 3069 3069 3070 3072 3074 3075 3076 3076 3074 3073 3074 3074 3072 3071 3071 3072 3074 3075 3077 3078 3081 3081 3079 3079 3079 3080 3082 3083 3084 3085 3087 3088 3091 3091 3087 3085 3089 3093 3096
3063 3063 3062 3061 3061 3060 3060 3060 3060 3061 3061 3061 3059 3060 3061 3061 3061 3061 3061 3060 3054 3051 3051 3052 3052 3052 3053 3055 3055 3056 3057 3055 3056 3059 3060 3058 3061 3064 3064 3065 3066 3065 3066 3067 3067 3066 3066 3067 3067 3067 3068 3069 3071 3072 3073 3074 3074 3072 3071 3073 3073 3072 3071 3070 3072 3073 3074 3077 3078 3079 3080 3079 3077 3076 3078 3080 3081 3082 3083 3085 3086 3089 3090 3084 3083 3088 3093 3096
3062 3061 3061 3060 3059 3059 3058 3058 3058 3059 3059 3058 3058 3059 3059 3060 3061 3061 3062 3061 3053 3049 3049 3049 3050 3051 3052 3053 3053 3053 3054 3054 3055 3056 3058 3058 3059 3062 3062 3062 3064 3064 3065 3065 3064 3064 3065 3065 3066 3067 3068 3069 3070 3070 3071 3072 3071 3070 3070 3071 3071 3071 3071 3071 3071 3071 3073 3076 3076 3076 3078 3077 3074 3074 3075 3077 3079 3080 3081 3083 3084 3088 3088 3083 3083 3088 3091 3094
3060 3059 3059 3058 3057 3057 3057 3057 3057 3057 3057 3056 3057 3058 3058 3059 3060 3060 3063 3060 3051 3047 3048 3048 3048 3050 3051 3052 3051 3051 3052 3054 3054 3054 3057 3057 3057 3060 3060 3060 3062 3063 3063 3063 3062 3063 3064 3064 3065 3066 3067 3068 3068 3069 3069 3070 3069 3069 3070 3069 3069 3070 3070 3071 3071 3071 3074 3075 3074 3074 3075 3074 3073 3072 3073 3074 3076 3077 3079 3081 3083 3086 3084 3081 3083 3087 3089 3090
3058 3058 3057 3057 3056 3055 3055 3055 3055 3055 3055 3055 3056 3057 3058 3059 3059 3060 3061 3057 3049 3047 3047 3046 3048 3049 3049 3050 3050 3050 3051 3053 3054 3054 3055 3056 3056 3058 3059 3061 3061 3061 3062 3062 3062 3062 3062 3063 3064 3065 3065 3066 3067 3067 3067 3068 3068 3069 3069 3068 3067 3066 3068 3070 3071 3072 3073 3072 3072 3073 3073 3074 3073 3071 3071 3072 3073 3075 3078 3079 3082 3083 3080 3080 3084 3086 3086 3088
3056 3056 3056 3055 3055 3054 3053 3053 3053 3053 3054 3054 3055 3056 3057 3057 3059 3058 3056 3052 3048 3046 3045 3045 3046 3047 3048 3048 3049 3049 3050 3051 3053 3053 3053 3055 3056 3057 3058 3059 3059 3059 3060 3059 3060 3061 3061 3061 3062 3063 3064 3065 3065 3065 3065 3065 3067 3068 3068 3068 3067 3065 3066 3069 3069 3070 3071 3069 3070 3070 3071 3073 3072 3071 3070 3070 3072 3075 3077 3078 3080 3080 3079 3081 3084 3085 3084 3087
3055 3054 3054 3053 3053 3053 3052 3051 3051 3052 3052 3053 3054 3054 3056 3057 3056 3054 3051 3051 3047 3043 3042 3044 3045 3045 3046 3047 3047 3048 3049 3049 3050 3051 3052 3053 3053 3054 3055 3055 3056 3057 3057 3057 3058 3058 3059 3060 3060 3061 3062 3062 3064 3064 3063 3064 3065 3066 3066 3067 3068 3065 3065 3066 3065 3066 3067 3066 3067 3068 3068 3070 3070 3070 3069 3069 3072 3074 3075 3076 3078 3078 3078 3081 3083 3084 3084 3087
3053 3052 3052 3051 3051 3051 3051 3050 3050 3050 3051 3052 3052 3053 3055 3055 3052 3050 3050 3050 3045 3041 3042 3043 3043 3044 3045 3046 3046 3047 3047 3048 3048 3050 3051 3051 3052 3052 3053 3053 3054 3055 3054 3055 3056 3056 3057 3058 3058 3059 3060 3060 3061 3062 3061 3062 3063 3064 3064 3065 3066 3065 3065 3066 3065 3065 3065 3064 3065 3066 3066 3067 3068 3069 3069 3069 3071 3072 3072 3073 3077 3079 3079 3080 3081 3082 3083 3085
3051 3050 3050 3049 3049 3049 3049 3048 3048 3049 3049 3050 3051 3052 3053 3052 3049 3048 3048 3047 3044 3042 3043 3043 3043 3044 3044 3044 3044 3045 3046 3046 3047 3048 3049 3049 3050 3050 3051 3051 3053 3054 3053 3054 3054 3053 3054 3054 3054 3056 3057 3058 3059 3059 3059 3060 3061 3062 3063 3064 3064 3063 3065 3066 3064 3064 3065 3063 3063 3064 3065 3066 3068 3068 3068 3069 3070 3072 3072 3073 3075 3079 3080 3080 3080 3080 3081 3083
3050 3049 3047 3047 3047 3046 3046 3046 3046 3047 3048 3048 3050 3050 3050 3048 3047 3047 3045 3044 3044 3043 3042 3042 3043 3043 3043 3042 3042 3043 3043 3043 3045 3046 3046 3046 3047 3047 3048 3049 3050 3052 3052 3052 3052 3052 3051 3050 3051 3053 3054 3056 3057 3057 3058 3059 3059 3060 3061 3062 3062 3062 3063 3064 3063 3064 3065 3064 3062 3063 3064 3066 3067 3068 3069 3070 3071 3072 3072 3074 3076 3078 3079 3079 3080 3081 3081 3082
3047 3047 3046 3045 3045 3044 3045 3044 3045 3045 3046 3047 3048 3047 3046 3045 3045 3045 3044 3043 3043 3042 3041 3040 3040 3040 3041 3041 3041 3041 3041 3042 3042 3043 3044 3044 3045 3045 3046 3047 3048 3049 3050 3050 3050 3050 3050 3049 3050 3051 3053 3054 3055 3056 3057 3058 3057 3058 3059 3059 3060 3061 3062 3063 3064 3064 3065 3065 3063 3063 3065 3066 3066 3068 3069 3070 3071 3072 3074 3075 3076 3077 3078 3079 3080 3082 3082 3082
3045 3045 3044 3044 3044 3043 3043 3043 3044 3044 3044 3045 3045 3044 3043 3044 3044 3043 3043 3042 3041 3041 3041 3039 3037 3037 3038 3039 3039 3039 3040 3040 3041 3041 3042 3043 3043 3043 3045 3046 3046 3047 3048 3049 3049 3049 3049 3049 3049 3050 3051 3052 3054 3055 3056 3057 3057 3058 3058 3058 3059 3060 3060 3062 3064 3063 3063 3064 3062 3061 3065 3067 3067 3067 3068 3069 3071 3073 3075 3075 3074 3075 3078 3080 3081 3081 3082 3082
3044 3043 3043 3043 3043 3043 3042 3042 3042 3043 3043 3043 3042 3041 3042 3042 3042 3042 3042 3041 3041 3040 3040 3040 3038 3036 3036 3036 3037 3037 3038 3039 3039 3040 3041 3041 3041 3041 3042 3044 3044 3046 3047 3048 3048 3048 3049 3049 3049 3049 3049 3051 3053 3054 3054 3055 3056 3056 3057 3057 3058 3059 3059 3060 3062 3063 3063 3063 3061 3058 3061 3065 3067 3066 3067 3069 3070 3072 3073 3072 3072 3075 3078 3079 3080 3080 3081 3081
3043 3043 3042 3042 3042 3042 3042 3041 3041 3041 3041 3041 3041 3040 3040 3040 3040 3040 3040 3041 3040 3039 3039 3039 3039 3037 3035 3035 3035 3036 3036 3036 3038 3039 3039 3040 3040 3039 3040 3041 3042 3043 3046 3048 3048 3048 3049 3048 3048 3048 3048 3049 3051 3052 3052 3053 3054 3055 3056 3057 3057 3058 3058 3058 3060 3060 3060 3063 3061 3056 3057 3064 3066 3065 3066 3068 3068 3070 3071 3071 3071 3073 3076 3078 3079 3079 3080 3082
3042 3042 3041 3041 3041 3041 3041 3040 3039 3040 3039 3039 3039 3039 3039 3039 3039 3038 3039 3039 3039 3038 3037 3038 3039 3037 3036 3035 3033 3034 3034 3035 3037 3038 3038 3039 3038 3038 3040 3041 3042 3042 3043 3045 3046 3047 3048 3048 3047 3048 3048 3048 3048 3049 3051 3052 3053 3054 3055 3056 3056 3057 3058 3059 3059 3059 3058 3060 3060 3058 3060 3066 3066 3065 3066 3067 3067 3068 3070 3070 3071 3073 3075 3077 3079 3080 3081 3083
3042 3042 3040 3040 3040 3040 3039 3038 3038 3038 3038 3037 3038 3038 3038 3038 3038 3037 3038 3038 3037 3037 3037 3038 3038 3037 3036 3035 3033 3033 3033 3034 3035 3036 3037 3038 3038 3038 3040 3041 3042 3041 3040 3041 3044 3046 3046 3046 3047 3048 3048 3047 3047 3049 3051 3052 3052 3053 3053 3054 3055 3056 3057 3057 3058 3059 3058 3058 3059 3061 3066 3069 3067 3066 3067 3066 3067 3069 3070 3071 3072 3074 3075 3077 3079 3081 3082 3083
3042 3041 3040 3039 3039 3038 3038 3037 3037 3037 3037 3036 3037 3037 3037 3037 3036 3036 3036 3035 3035 3035 3036 3037 3037 3036 3036 3034 3033 3034 3034 3033 3033 3034 3035 3036 3038 3039 3040 3039 3039 3039 3039 3040 3043 3043 3043 3044 3046 3047 3047 3047 3046 3047 3049 3050 3051 3051 3051 3052 3054 3054 3055 3055 3056 3058 3058 3057 3059 3061 3065 3069 3068 3068 3068 3067 3067 3070 3071 3071 3072 3074 3075 3076 3077 3080 3081 3082
3042 3041 3039 3038 3039 3038 3037 3036 3037 3036 3035 3035 3035 3034 3035 3035 3034 3034 3034 3034 3034 3034 3035 3035 3036 3036 3035 3035 3034 3035 3034 3033 3033 3033 3034 3036 3037 3037 3038 3038 3038 3040 3040 3041 3041 3042 3042 3044 3045 3047 3047 3047 3046 3046 3047 3048 3049 3049 3050 3051 3052 3052 3053 3054 3055 3056 3057 3057 3058 3060 3065 3069 3069 3069 3069 3068 3068 3070 3071 3072 3073 3074 3076 3076 3077 3079 3080 3081
3041 3042 3040 3038 3037 3037 3037 3036 3035 3034 3033 3033 3033 3032 3031 3031 3031 3032 3033 3033 3033 3034 3035 3035 3035 3035 3035 3035 3035 3034 3034 3034 3033 3033 3034 3036 3036 3035 3036 3037 3038 3039 3041 3041 3041 3041 3042 3043 3044 3047 3048 3048 3049 3049 3048 3047 3047 3048 3049 3051 3052 3052 3052 3053 3054 3055 3056 3058 3058 3060 3065 3068 3069 3069 3069 3068 3068 3069 3071 3072 3074 3075 3076 3077 3078 3080 3081 3081
3041 3041 3041 3039 3037 3037 3037 3036 3035 3034 3032 3032 3031 3030 3030 3030 3030 3031 3032 3032 3032 3033 3033 3033 3033 3033 3033 3034 3034 3033 3033 3034 3034 3034 3033 3033 3034 3034 3034 3036 3037 3038 3039 3040 3041 3041 3042 3042 3043 3045 3045 3045 3049 3050 3048 3047 3048 3048 3049 3049 3050 3051 3052 3052 3054 3055 3056 3057 3058 3061 3065 3067 3067 3069 3069 3067 3068 3069 3071 3073 3075 3076 3076 3078 3079 3080 3080 3081
3041 3041 3042 3040 3037 3036 3036 3035 3034 3033 3031 3030 3029 3030 3030 3029 3029 3030 3030 3031 3031 3031 3032 3032 3032 3032 3032 3032 3033 3032 3033 3033 3034 3034 3033 3032 3033 3034 3034 3035 3036 3037 3038 3040 3042 3042 3043 3042 3043 3044 3044 3044 3048 3050 3048 3047 3049 3049 3049 3048 3048 3049 3051 3052 3053 3054 3055 3057 3059 3061 3064 3065 3066 3068 3068 3068 3068 3069 3070 3072 3075 3076 3077 3078 3079 3079 3080 3081
3041 3041 3040 3039 3037 3036 3036 3034 3032 3031 3030 3029 3028 3029 3029 3029 3028 3029 3029 3029 3030 3030 3031 3031 3032 3032 3032 3032 3032 3032 3033 3033 3033 3034 3034 3032 3032 3033 3034 3035 3036 3037 3038 3039 3041 3042 3042 3042 3042 3044 3045 3045 3047 3048 3048 3049 3050 3050 3049 3049 3049 3049 3049 3051 3052 3053 3055 3057 3059 3061 3062 3064 3065 3067 3068 3068 3068 3069 3070 3071 3074 3075 3076 3078 3078 3078 3079 3080
3041 3041 3039 3038 3037 3036 3035 3033 3032 3031 3030 3029 3028 3028 3028 3028 3027 3028 3028 3028 3029 3030 3030 3031 3031 3032 3032 3033 3032 3032 3032 3032 3032 3032 3032 3032 3031 3032 3034 3035 3036 3037 3038 3039 3041 3041 3042 3042 3042 3042 3044 3046 3046 3047 3047 3049 3050 3051 3052 3052 3051 3050 3049 3051 3052 3053 3054 3055 3057 3060 3060 3061 3063 3065 3067 3068 3068 3068 3070 3072 3073 3074 3076 3078 3078 3078 3079 3079
3040 3040 3039 3038 3038 3037 3035 3033 3032 3030 3029 3029 3028 3028 3028 3028 3027 3028 3028 3028 3028 3029 3029 3030 3030 3031 3031 3031 3030 3030 3029 3030 3030 3030 3030 3031 3032 3033 3033 3034 3036 3037 3038 3039 3040 3040 3040 3040 3041 3041 3042 3044 3045 3046 3046 3047 3049 3051 3052 3053 3054 3053 3053 3053 3053 3052 3052 3053 3055 3058 3058 3060 3062 3064 3065 3066 3067 3068 3069 3071 3073 3074 3076 3078 3078 3078 3078 3078
3039 3039 3039 3038 3039 3038 3036 3034 3033 3031 3030 3030 3029 3029 3029 3029 3028 3029 3029 3028 3029 3029 3029 3029 3029 3029 3029 3029 3028 3027 3027 3028 3029 3029 3030 3031 3032 3033 3033 3034 3035 3036 3037 3038 3039 3039 3039 3039 3040 3041 3042 3043 3044 3045 3046 3047 3048 3049 3051 3052 3054 3054 3055 3056 3055 3053 3053 3053 3054 3055 3056 3058 3061 3062 3064 3065 3066 3068 3069 3071 3072 3074 3076 3077 3077 3077 3077 3078
3038 3038 3039 3038 3039 3040 3037 3036 3035 3033 3031 3030 3030 3030 3030 3030 3029 3029 3029 3029 3029 3029 3029 3029 3028 3027 3027 3027 3026 3026 3027 3028 3028 3029 3030 3031 3032 3034 3034 3035 3036 3037 3037 3037 3037 3037 3038 3039 3039 3041 3042 3042 3043 3045 3046 3047 3048 3048 3049 3051 3053 3054 3055 3056 3056 3055 3055 3055 3054 3054 3056 3058 3060 3061 3063 3064 3064 3066 3068 3069 3071 3073 3075 3076 3075 3075 3075 3075
3038 3038 3039 3038 3039 3040 3039 3037 3036 3035 3033 3032 3032 3031 3030 3030 3030 3030 3029 3029 3028 3028 3028 3028 3028 3027 3027 3026 3026 3026 3027 3027 3028 3029 3030 3031 3031 3033 3035 3035 3036 3037 3036 3037 3037 3038 3038 3039 3039 3041 3041 3042 3043 3044 3046 3047 3048 3048 3049 3050 3052 3052 3053 3055 3056 3056 3057 3057 3055 3056 3058 3059 3059 3061 3062 3063 3063 3064 3066 3067 3068 3071 3072 3072 3071 3071 3070 3071